Location: Caltech
(34.1382°N, 118.1253°W)
Time: 04:37:23
(UTC-08:00)

Cosmos 2219 - Visible Passes

Search period start: 24 February 2017 00:00
Search period end: 06 March 2017 00:00
Orbit: 833 x 861 km, 71.1° (Epoch: 24 February)

Date Brightness Start Highest point End Pass type
(mag) Time Alt. Az. Time Alt. Az. Time Alt. Az.
24 Feb 5.9 03:59:39 10° NNE 04:02:58 16° NE 04:06:16 10° E visible
24 Feb 3.2 05:41:59 10° NNW 05:47:37 66° WSW 05:53:10 10° S visible
24 Feb 3.2 18:46:03 10° S 18:51:40 59° ESE 18:57:19 10° NNE visible
24 Feb 5.7 20:32:25 10° W 20:36:13 18° WNW 20:40:01 10° NNW visible
25 Feb 5.9 03:46:16 10° NNE 03:49:30 15° NE 03:52:42 10° E visible
25 Feb 3.1 05:28:32 10° NNW 05:34:09 68° WSW 05:39:43 10° S visible
25 Feb 3.3 18:32:37 10° S 18:38:13 57° ESE 18:43:51 10° NNE visible
25 Feb 5.7 20:18:52 10° W 20:22:44 18° WNW 20:26:37 10° NNW visible
26 Feb 5.9 03:32:53 10° NNE 03:36:01 15° NE 03:39:07 10° E visible
26 Feb 3.1 05:15:04 10° NNW 05:20:42 70° WSW 05:26:16 10° S visible
26 Feb 3.3 18:19:11 10° S 18:24:46 56° ESE 18:30:23 10° NNE visible
26 Feb 5.7 20:05:19 10° W 20:09:15 19° WNW 20:13:13 10° NNW visible
27 Feb 5.9 03:19:30 10° NNE 03:22:32 14° NE 03:25:32 10° E visible
27 Feb 3.1 05:01:36 10° NNW 05:07:14 72° WSW 05:12:49 10° SSE visible
27 Feb 3.4 18:05:45 10° S 18:11:19 54° ESE 18:16:54 10° NNE visible
27 Feb 5.7 19:51:47 10° WSW 19:55:47 19° WNW 19:59:48 10° NNW visible
28 Feb 5.9 03:06:08 10° NNE 03:09:03 14° NE 03:11:57 10° E visible
28 Feb 3.1 04:48:08 10° NNW 04:53:47 74° WSW 04:59:22 10° SSE visible
28 Feb 5.7 19:38:14 10° WSW 19:42:19 20° WNW 19:46:23 10° NNW visible
01 Mar 5.9 02:52:46 10° NNE 02:55:34 14° NE 02:58:21 10° E visible
01 Mar 3.0 04:34:40 10° NNW 04:40:20 76° WSW 04:45:55 10° SSE visible
01 Mar 5.7 19:24:42 10° WSW 19:28:50 20° WNW 19:32:59 10° NNW visible
02 Mar 5.9 02:41:21 13° NE 02:42:06 13° NE 02:44:45 10° E visible
02 Mar 3.0 04:23:29 25° NNW 04:26:52 78° WSW 04:32:27 10° SSE visible
02 Mar 5.7 19:11:10 10° WSW 19:15:22 21° WNW 19:19:34 10° N visible
03 Mar 3.0 04:13:23 79° WSW 04:13:25 80° WSW 04:19:00 10° SSE visible
03 Mar 5.7 18:57:38 10° WSW 19:01:53 21° WNW 19:06:10 10° N visible
04 Mar 4.4 04:02:54 29° SSE 04:02:54 29° SSE 04:05:33 10° SSE visible
04 Mar 5.7 18:44:06 10° WSW 18:48:25 21° WNW 18:52:45 10° N visible
05 Mar 5.7 18:30:35 10° WSW 18:34:57 22° WNW 18:39:20 10° N visible
